^^
Caerphilly Weather Station Historical Data
 
Daily Summary for June 18, 2019 Units:  Metric    English   Both
Daily Weekly Monthly Yearly Custom
  Current: High: Low: Average:
Temperature: 14.7 °C 15.2 °C 11.3 °C 13.4 °C
Dew Point: 12.2 °C 12.7 °C 10.3 °C 11.5 °C
Humidity: 85% 95% 73% 88%
Wind Speed: 0.0km/h 0.0km/h 0.0km/h 0km/h
Wind Gust: 0.0km/h 0.0km/h - -
WindCalm - -
Pressure: 1012.8 hPa 1016.0 hPa 1012.8 hPa -
Precipitation: 0.0 mm      
Historical Graphs
 
 
Tabular Data for June 18, 2019
Time Temperature Dew Point Pressure Wind Wind Speed Wind Gust Humidity Rainfall Rate (Hourly) solar
00:04 13.6 °C 11.9 °C 1015.9 hPa Calm     90% 0.0 mm 0.00 W/m2
00:09 13.4 °C 12.0 °C 1016.0 hPa Calm     91% 0.0 mm 0.00 W/m2
00:14 13.4 °C 11.9 °C 1015.9 hPa Calm     91% 0.0 mm 0.00 W/m2
00:19 13.3 °C 11.9 °C 1015.8 hPa Calm     91% 0.0 mm 0.00 W/m2
00:24 13.3 °C 11.9 °C 1015.8 hPa Calm     91% 0.0 mm 0.00 W/m2
00:29 13.3 °C 11.9 °C 1015.7 hPa Calm     91% 0.0 mm 0.00 W/m2
00:34 13.3 °C 11.9 °C 1015.6 hPa Calm     91% 0.0 mm 0.00 W/m2
00:39 13.3 °C 11.9 °C 1015.6 hPa Calm     91% 0.0 mm 0.00 W/m2
00:44 13.3 °C 12.1 °C 1015.6 hPa Calm     92% 0.0 mm 0.00 W/m2
00:49 13.3 °C 12.1 °C 1015.6 hPa Calm     92% 0.0 mm 0.00 W/m2
00:54 13.3 °C 12.1 °C 1015.5 hPa Calm     92% 0.0 mm 0.00 W/m2
00:59 13.3 °C 12.0 °C 1015.5 hPa Calm     92% 0.0 mm 0.00 W/m2
01:04 13.3 °C 12.0 °C 1015.4 hPa Calm     92% 0.0 mm 0.00 W/m2
01:09 13.3 °C 12.0 °C 1015.4 hPa Calm     92% 0.0 mm 0.00 W/m2
01:14 13.2 °C 11.9 °C 1015.4 hPa Calm     92% 0.0 mm 0.00 W/m2
01:19 13.1 °C 11.8 °C 1015.4 hPa Calm     92% 0.0 mm 0.00 W/m2
01:24 13.1 °C 11.8 °C 1015.4 hPa Calm     92% 0.0 mm 0.00 W/m2
01:29 13.0 °C 11.7 °C 1015.4 hPa Calm     92% 0.0 mm 0.00 W/m2
01:34 13.0 °C 11.9 °C 1015.3 hPa Calm     93% 0.0 mm 0.00 W/m2
01:39 13.0 °C 11.9 °C 1015.3 hPa Calm     93% 0.0 mm 0.00 W/m2
01:44 13.0 °C 11.9 °C 1015.2 hPa Calm     93% 0.0 mm 0.00 W/m2
01:49 13.0 °C 11.9 °C 1015.2 hPa Calm     93% 0.0 mm 0.00 W/m2
01:54 12.9 °C 11.8 °C 1015.2 hPa Calm     93% 0.0 mm 0.00 W/m2
01:59 12.9 °C 11.8 °C 1015.2 hPa Calm     93% 0.0 mm 0.00 W/m2
02:04 12.9 °C 11.8 °C 1015.1 hPa Calm     93% 0.0 mm 0.00 W/m2
02:09 12.9 °C 11.8 °C 1015.1 hPa Calm     93% 0.0 mm 0.00 W/m2
02:14 12.8 °C 11.7 °C 1015.1 hPa Calm     93% 0.0 mm 0.00 W/m2
02:19 12.8 °C 11.7 °C 1015.1 hPa Calm     93% 0.0 mm 0.00 W/m2
02:24 12.7 °C 11.6 °C 1015.1 hPa Calm     93% 0.0 mm 0.00 W/m2
02:29 12.7 °C 11.6 °C 1015.1 hPa Calm     93% 0.0 mm 0.00 W/m2
02:34 12.6 °C 11.4 °C 1015.1 hPa Calm     93% 0.0 mm 0.00 W/m2
02:39 12.4 °C 11.3 °C 1015.1 hPa Calm     93% 0.0 mm 0.00 W/m2
02:44 12.3 °C 11.2 °C 1015.0 hPa Calm     93% 0.0 mm 0.00 W/m2
02:49 12.2 °C 11.1 °C 1015.0 hPa Calm     93% 0.0 mm 0.00 W/m2
02:54 12.1 °C 11.0 °C 1015.1 hPa Calm     93% 0.0 mm 0.00 W/m2
02:59 12.1 °C 11.2 °C 1015.0 hPa Calm     94% 0.0 mm 0.00 W/m2
03:04 12.2 °C 11.2 °C 1015.0 hPa Calm     94% 0.0 mm 0.00 W/m2
03:09 12.2 °C 11.2 °C 1015.0 hPa Calm     94% 0.0 mm 0.00 W/m2
03:14 12.2 °C 11.2 °C 1015.0 hPa Calm     94% 0.0 mm 0.00 W/m2
03:19 12.2 °C 11.2 °C 1014.9 hPa Calm     94% 0.0 mm 0.00 W/m2
03:24 12.2 °C 11.2 °C 1014.8 hPa Calm     94% 0.0 mm 0.00 W/m2
03:29 12.1 °C 11.2 °C 1014.8 hPa Calm     94% 0.0 mm 0.00 W/m2
03:34 12.1 °C 11.2 °C 1014.8 hPa Calm     94% 0.0 mm 0.00 W/m2
03:39 12.1 °C 11.2 °C 1014.8 hPa Calm     94% 0.0 mm 0.00 W/m2
03:44 12.1 °C 11.2 °C 1014.8 hPa Calm     94% 0.0 mm 0.00 W/m2
03:49 12.1 °C 11.1 °C 1014.7 hPa Calm     94% 0.0 mm 0.00 W/m2
03:54 12.1 °C 11.1 °C 1014.7 hPa Calm     94% 0.0 mm 0.00 W/m2
03:59 12.1 °C 11.1 °C 1014.6 hPa Calm     94% 0.0 mm 0.00 W/m2
04:04 12.0 °C 11.1 °C 1014.5 hPa Calm     94% 0.0 mm 0.00 W/m2
04:09 11.9 °C 11.0 °C 1014.5 hPa Calm     94% 0.0 mm 0.00 W/m2
04:14 11.8 °C 10.9 °C 1014.5 hPa Calm     94% 0.0 mm 0.00 W/m2
04:19 11.7 °C 10.8 °C 1014.4 hPa Calm     94% 0.0 mm 0.00 W/m2
04:24 11.7 °C 10.8 °C 1014.5 hPa Calm     94% 0.0 mm 0.00 W/m2
04:29 11.7 °C 10.7 °C 1014.4 hPa Calm     94% 0.0 mm 0.00 W/m2
04:34 11.6 °C 10.6 °C 1014.4 hPa Calm     94% 0.0 mm 0.00 W/m2
04:39 11.4 °C 10.5 °C 1014.4 hPa Calm     94% 0.0 mm 0.00 W/m2
04:44 11.4 °C 10.5 °C 1014.4 hPa Calm     94% 0.0 mm 0.00 W/m2
04:49 11.4 °C 10.4 °C 1014.5 hPa Calm     94% 0.0 mm 0.00 W/m2
04:54 11.3 °C 10.4 °C 1014.4 hPa Calm     94% 0.0 mm 0.00 W/m2
04:59 11.3 °C 10.4 °C 1014.4 hPa Calm     94% 0.0 mm 0.00 W/m2
05:04 11.3 °C 10.6 °C 1014.4 hPa Calm     95% 0.0 mm 0.00 W/m2
05:09 11.3 °C 10.5 °C 1014.4 hPa Calm     95% 0.0 mm 5.50 W/m2
05:14 11.3 °C 10.4 °C 1014.4 hPa Calm     94% 0.0 mm 5.50 W/m2
05:19 11.3 °C 10.6 °C 1014.5 hPa Calm     95% 0.0 mm 9.90 W/m2
05:24 11.4 °C 10.6 °C 1014.5 hPa Calm     95% 0.0 mm 12.10 W/m2
05:29 11.3 °C 10.6 °C 1014.5 hPa Calm     95% 0.0 mm 13.20 W/m2
05:34 11.3 °C 10.6 °C 1014.5 hPa Calm     95% 0.0 mm 15.40 W/m2
05:39 11.3 °C 10.6 °C 1014.5 hPa Calm     95% 0.0 mm 17.60 W/m2
05:44 11.4 °C 10.6 °C 1014.5 hPa Calm     95% 0.0 mm 15.40 W/m2
05:49 11.3 °C 10.6 °C 1014.5 hPa Calm     95% 0.0 mm 15.40 W/m2
05:54 11.4 °C 10.7 °C 1014.5 hPa Calm     95% 0.0 mm 19.80 W/m2
05:59 11.5 °C 10.7 °C 1014.4 hPa Calm     95% 0.0 mm 19.80 W/m2
06:04 11.7 °C 10.9 °C 1014.4 hPa Calm     95% 0.0 mm 23.10 W/m2
06:09 11.7 °C 10.9 °C 1014.4 hPa Calm     95% 0.0 mm 27.50 W/m2
06:14 11.8 °C 11.1 °C 1014.4 hPa Calm     95% 0.0 mm 38.50 W/m2
06:19 11.9 °C 11.1 °C 1014.5 hPa Calm     95% 0.0 mm 48.40 W/m2
06:24 11.9 °C 11.2 °C 1014.4 hPa Calm     95% 0.0 mm 46.20 W/m2
06:29 12.0 °C 11.2 °C 1014.4 hPa Calm     95% 0.0 mm 42.90 W/m2
06:34 12.1 °C 11.3 °C 1014.4 hPa Calm     95% 0.0 mm 50.60 W/m2
06:39 12.1 °C 11.3 °C 1014.4 hPa Calm     95% 0.0 mm 58.30 W/m2
06:44 12.2 °C 11.4 °C 1014.4 hPa Calm     95% 0.0 mm 71.50 W/m2
06:49 12.2 °C 11.4 °C 1014.3 hPa Calm     95% 0.0 mm 69.30 W/m2
06:54 12.3 °C 11.5 °C 1014.4 hPa Calm     95% 0.0 mm 68.20 W/m2
06:59 12.4 °C 11.6 °C 1014.4 hPa Calm     95% 0.0 mm 58.30 W/m2
07:04 12.5 °C 11.7 °C 1014.3 hPa Calm     95% 0.0 mm 61.60 W/m2
07:09 12.6 °C 11.8 °C 1014.3 hPa Calm     95% 0.0 mm 68.20 W/m2
07:14 12.6 °C 11.8 °C 1014.3 hPa Calm     95% 0.0 mm 69.30 W/m2
07:19 12.6 °C 11.8 °C 1014.3 hPa Calm     95% 0.0 mm 81.40 W/m2
07:24 12.7 °C 11.9 °C 1014.2 hPa Calm     95% 0.0 mm 89.10 W/m2
07:29 12.8 °C 12.0 °C 1014.2 hPa Calm     95% 0.0 mm 91.30 W/m2
07:34 12.8 °C 12.1 °C 1014.1 hPa Calm     95% 0.0 mm 104.50 W/m2
07:39 12.8 °C 12.1 °C 1014.1 hPa Calm     95% 0.0 mm 117.70 W/m2
07:44 12.8 °C 12.1 °C 1014.2 hPa Calm     95% 0.0 mm 135.30 W/m2
07:49 12.9 °C 12.2 °C 1014.2 hPa Calm     95% 0.0 mm 137.50 W/m2
07:54 12.9 °C 12.2 °C 1014.2 hPa Calm     95% 0.0 mm 162.80 W/m2
07:59 13.1 °C 12.3 °C 1014.2 hPa Calm     95% 0.0 mm 189.20 W/m2
08:04 13.1 °C 12.3 °C 1014.1 hPa Calm     95% 0.0 mm 160.60 W/m2
08:09 13.1 °C 12.3 °C 1014.0 hPa Calm     95% 0.0 mm 260.70 W/m2
08:14 13.3 °C 12.6 °C 1014.0 hPa Calm     95% 0.0 mm 268.40 W/m2
08:19 13.4 °C 12.5 °C 1014.1 hPa Calm     94% 0.0 mm 265.10 W/m2
08:24 13.5 °C 12.6 °C 1014.2 hPa Calm     94% 0.0 mm 365.20 W/m2
08:29 13.6 °C 12.4 °C 1014.1 hPa Calm     93% 0.0 mm 446.60 W/m2
08:34 13.8 °C 12.7 °C 1014.2 hPa Calm     93% 0.0 mm 371.80 W/m2
08:39 13.8 °C 12.4 °C 1014.2 hPa Calm     91% 0.0 mm 220.00 W/m2
08:44 13.9 °C 12.3 °C 1014.3 hPa Calm     90% 0.0 mm 321.20 W/m2
08:49 14.1 °C 12.4 °C 1014.3 hPa Calm     90% 0.0 mm 619.30 W/m2
08:54 14.4 °C 12.7 °C 1014.3 hPa Calm     89% 0.0 mm 283.80 W/m2
08:59 14.6 °C 12.4 °C 1014.3 hPa Calm     87% 0.0 mm 163.90 W/m2
09:04 14.6 °C 12.4 °C 1014.4 hPa Calm     87% 0.0 mm 117.70 W/m2
09:09 14.4 °C 12.1 °C 1014.4 hPa Calm     86% 0.0 mm 137.50 W/m2
09:14 14.3 °C 12.2 °C 1014.4 hPa Calm     87% 0.0 mm 155.10 W/m2
09:19 14.2 °C 12.1 °C 1014.4 hPa Calm     87% 0.0 mm 204.60 W/m2
09:24 14.2 °C 12.1 °C 1014.4 hPa Calm     87% 0.0 mm 257.40 W/m2
09:29 14.2 °C 12.1 °C 1014.4 hPa Calm     87% 0.0 mm 251.90 W/m2
09:34 14.2 °C 11.9 °C 1014.3 hPa Calm     86% 0.0 mm 313.50 W/m2
09:39 14.4 °C 12.1 °C 1014.4 hPa Calm     86% 0.0 mm 311.30 W/m2
09:44 14.4 °C 12.1 °C 1014.3 hPa Calm     86% 0.0 mm 354.20 W/m2
09:49 14.6 °C 12.1 °C 1014.2 hPa Calm     85% 0.0 mm 347.60 W/m2
09:54 14.5 °C 11.8 °C 1014.3 hPa Calm     84% 0.0 mm 328.90 W/m2
09:59 14.6 °C 12.1 °C 1014.2 hPa Calm     85% 0.0 mm 331.10 W/m2
10:04 14.7 °C 11.8 °C 1014.3 hPa Calm     83% 0.0 mm 311.30 W/m2
10:09 14.7 °C 11.9 °C 1014.3 hPa Calm     83% 0.0 mm 295.90 W/m2
10:14 14.8 °C 11.9 °C 1014.3 hPa Calm     83% 0.0 mm 306.90 W/m2
10:19 14.8 °C 11.9 °C 1014.2 hPa Calm     83% 0.0 mm 339.90 W/m2
10:24 14.9 °C 12.1 °C 1014.2 hPa Calm     83% 0.0 mm 379.50 W/m2
10:29 15.0 °C 11.8 °C 1014.2 hPa Calm     81% 0.0 mm 321.20 W/m2
10:34 14.9 °C 11.3 °C 1014.2 hPa Calm     79% 0.0 mm 323.40 W/m2
10:39 14.9 °C 10.9 °C 1014.1 hPa Calm     77% 0.0 mm 321.20 W/m2
10:44 14.9 °C 10.9 °C 1014.1 hPa Calm     77% 0.0 mm 323.40 W/m2
10:49 15.0 °C 10.8 °C 1014.1 hPa Calm     76% 0.0 mm 326.70 W/m2
10:54 15.1 °C 10.4 °C 1014.1 hPa Calm     74% 0.0 mm 331.10 W/m2
10:59 14.9 °C 10.3 °C 1014.0 hPa Calm     74% 0.0 mm 328.90 W/m2
11:04 14.9 °C 10.6 °C 1014.0 hPa Calm     75% 0.0 mm 301.40 W/m2
11:09 15.1 °C 10.7 °C 1013.9 hPa Calm     75% 0.0 mm 270.60 W/m2
11:14 15.1 °C 10.7 °C 1013.9 hPa Calm     75% 0.0 mm 262.90 W/m2
11:19 15.2 °C 10.6 °C 1014.0 hPa Calm     74% 0.0 mm 265.10 W/m2
11:24 15.1 °C 10.3 °C 1013.9 hPa Calm     73% 0.0 mm 237.60 W/m2
11:29 15.2 °C 10.6 °C 1013.8 hPa Calm     74% 0.0 mm 245.30 W/m2
11:34 15.2 °C 10.6 °C 1013.8 hPa Calm     74% 0.0 mm 227.70 W/m2
11:39 15.2 °C 10.6 °C 1013.7 hPa Calm     74% 0.0 mm 199.10 W/m2
11:44 15.2 °C 10.8 °C 1013.6 hPa Calm     75% 0.0 mm 160.60 W/m2
11:49 15.2 °C 10.6 °C 1013.6 hPa Calm     74% 0.0 mm 137.50 W/m2
11:54 15.2 °C 10.8 °C 1013.6 hPa Calm     75% 0.0 mm 171.60 W/m2
11:59 15.1 °C 10.7 °C 1013.6 hPa Calm     75% 0.0 mm 255.20 W/m2
12:04 15.1 °C 10.9 °C 1013.5 hPa Calm     76% 0.0 mm 253.00 W/m2
12:09 15.1 °C 10.9 °C 1013.3 hPa Calm     76% 0.0 mm 204.60 W/m2
12:14 15.1 °C 10.9 °C 1013.3 hPa Calm     76% 0.0 mm 209.00 W/m2
12:19 15.2 °C 11.2 °C 1013.4 hPa Calm     77% 0.0 mm 150.70 W/m2
12:24 15.2 °C 11.2 °C 1013.4 hPa Calm     77% 0.0 mm 127.60 W/m2
12:29 15.2 °C 11.6 °C 1013.4 hPa Calm     79% 0.0 mm 139.70 W/m2
12:34 15.1 °C 11.5 °C 1013.4 hPa Calm     79% 0.0 mm 145.20 W/m2
12:39 15.2 °C 11.7 °C 1013.4 hPa Calm     80% 0.0 mm 181.50 W/m2
12:44 15.1 °C 11.7 °C 1013.4 hPa Calm     80% 0.0 mm 237.60 W/m2
12:49 15.1 °C 11.4 °C 1013.4 hPa Calm     79% 0.0 mm 293.70 W/m2
12:54 15.1 °C 11.4 °C 1013.4 hPa Calm     79% 0.0 mm 331.10 W/m2
12:59 15.1 °C 11.5 °C 1013.3 hPa Calm     79% 0.0 mm 331.10 W/m2
13:04 15.1 °C 11.5 °C 1013.3 hPa Calm     79% 0.0 mm 338.80 W/m2
13:09 15.1 °C 11.5 °C 1013.3 hPa Calm     79% 0.0 mm 363.00 W/m2
13:14 15.2 °C 11.4 °C 1013.3 hPa Calm     78% 0.0 mm 375.10 W/m2
13:19 15.2 °C 10.8 °C 1013.4 hPa Calm     75% 0.0 mm 299.20 W/m2
13:24 15.2 °C 10.8 °C 1013.4 hPa Calm     75% 0.0 mm 235.40 W/m2
13:29 15.1 °C 10.7 °C 1013.4 hPa Calm     75% 0.0 mm 203.50 W/m2
13:34 15.1 °C 10.8 °C 1013.3 hPa Calm     76% 0.0 mm 218.90 W/m2
13:39 15.1 °C 11.2 °C 1013.3 hPa Calm     78% 0.0 mm 253.00 W/m2
13:44 15.1 °C 11.5 °C 1013.2 hPa Calm     79% 0.0 mm 239.80 W/m2
13:49 15.1 °C 11.4 °C 1013.3 hPa Calm     79% 0.0 mm 265.10 W/m2
13:54 15.0 °C 11.6 °C 1013.2 hPa Calm     80% 0.0 mm 315.70 W/m2
13:59 14.9 °C 11.7 °C 1013.2 hPa Calm     81% 0.0 mm 363.00 W/m2
14:04 14.8 °C 11.8 °C 1013.2 hPa Calm     82% 0.0 mm 339.90 W/m2
14:09 14.8 °C 11.8 °C 1013.2 hPa Calm     82% 0.0 mm 323.40 W/m2
14:14 14.8 °C 11.7 °C 1013.0 hPa Calm     82% 0.0 mm 290.40 W/m2
14:19 14.8 °C 11.9 °C 1013.0 hPa Calm     83% 0.0 mm 245.30 W/m2
14:24 14.8 °C 11.9 °C 1013.0 hPa Calm     83% 0.0 mm 216.70 W/m2
14:29 14.7 °C 11.9 °C 1013.0 hPa Calm     83% 0.0 mm 249.70 W/m2
14:34 14.8 °C 12.1 °C 1012.9 hPa Calm     84% 0.0 mm 247.50 W/m2
14:39 14.7 °C 12.2 °C 1012.9 hPa Calm     85% 0.0 mm 276.10 W/m2
14:44 14.7 °C 12.2 °C 1012.8 hPa Calm     85% 0.0 mm 334.40 W/m2
14:49 14.7 °C 12.2 °C 1012.8 hPa Calm     85% 0.0 mm 298.10 W/m2
Caerphilly,Wales
Compliments of Weather Underground - 4 mb